NOS699 LIRF-EKVG

Flight info

Callsign NOS699
Flight time N/A
Altitude 34000
Route SOSI5A SOSIV SOVAN ARGAX KUDIS ZUE RILAX IMVIX MONIL SUPUR GODOS RIVOT TUVIV MY CL12 MY 32LOC 20LOC ML12
Aircraft A20N/M-SDE2E3FGHIJ1RWXY/LB1

Departure

Time 2026-05-07 08:20
Airport Rome–Fiumicino Leonardo da Vinci International Airport (LIRF)

Arrival

Time N/A
Airport Vágar Airport (EKVG)
Time Latitude Longitude Altitude Speed Heading
2026-05-07 07:55 41.79652 12.25591 16 ft 0 kts 298°
2026-05-07 08:14 41.79640 12.25619 17 ft 4 kts 304°
2026-05-07 08:14 41.79623 12.25644 18 ft 4 kts 338°
2026-05-07 08:14 41.79608 12.25646 17 ft 0 kts 24°
2026-05-07 08:16 41.79635 12.25662 17 ft 12 kts 24°
2026-05-07 08:16 41.79751 12.25735 17 ft 23 kts 26°
2026-05-07 08:17 41.79899 12.25841 17 ft 25 kts 26°
2026-05-07 08:17 41.80058 12.25938 17 ft 26 kts 25°
2026-05-07 08:17 41.80230 12.26044 15 ft 29 kts 25°
2026-05-07 08:17 41.80411 12.26156 15 ft 27 kts 24°
2026-05-07 08:18 41.80540 12.26280 15 ft 21 kts 66°
2026-05-07 08:18 41.80583 12.26441 18 ft 16 kts 71°
2026-05-07 08:18 41.80620 12.26578 15 ft 17 kts 69°
2026-05-07 08:18 41.80676 12.26777 13 ft 30 kts 70°
2026-05-07 08:19 41.80774 12.27038 10 ft 22 kts 20°
2026-05-07 08:19 41.80919 12.26982 11 ft 23 kts 335°
2026-05-07 08:19 41.80884 12.26664 12 ft 75 kts 250°
2026-05-07 08:19 41.80593 12.25611 14 ft 165 kts 250°
2026-05-07 08:20 41.80121 12.23926 628 ft 202 kts 249°
2026-05-07 08:20 41.79663 12.22191 2202 ft 201 kts 249°
2026-05-07 08:20 41.79378 12.20285 3313 ft 219 kts 280°
2026-05-07 08:20 41.79939 12.18322 4451 ft 235 kts 297°
2026-05-07 08:21 41.80818 12.16394 5589 ft 250 kts 303°
2026-05-07 08:21 41.81858 12.14442 6743 ft 264 kts 306°
2026-05-07 08:21 41.83099 12.12605 8043 ft 270 kts 320°
2026-05-07 08:21 41.84695 12.11233 9450 ft 275 kts 328°
2026-05-07 08:22 41.86444 12.10098 10622 ft 286 kts 333°
2026-05-07 08:22 41.88341 12.09079 11340 ft 309 kts 336°
2026-05-07 08:22 41.90477 12.08101 12113 ft 330 kts 339°
2026-05-07 08:22 41.92719 12.07251 12899 ft 349 kts 343°
2026-05-07 08:23 41.95167 12.06608 13728 ft 367 kts 347°
2026-05-07 08:23 41.97747 12.06113 14468 ft 383 kts 349°
2026-05-07 08:23 42.00450 12.05712 15211 ft 397 kts 351°
2026-05-07 08:23 42.03245 12.05378 15957 ft 410 kts 352°
2026-05-07 08:24 42.06118 12.05086 16852 ft 417 kts 352°
2026-05-07 08:24 42.09037 12.04817 17712 ft 425 kts 352°
2026-05-07 08:24 42.12015 12.04552 18548 ft 432 kts 352°
2026-05-07 08:24 42.15030 12.04260 19323 ft 437 kts 351°
2026-05-07 08:25 42.18069 12.03820 20094 ft 442 kts 349°
2026-05-07 08:25 42.21134 12.03271 20830 ft 446 kts 348°
2026-05-07 08:25 42.24222 12.02653 21584 ft 451 kts 347°
2026-05-07 08:25 42.27347 12.01983 22324 ft 456 kts 346°
2026-05-07 08:26 42.33684 12.00544 23697 ft 467 kts 346°
2026-05-07 08:26 42.36903 11.99817 24314 ft 471 kts 346°
2026-05-07 08:26 42.40150 11.99091 24939 ft 475 kts 346°
2026-05-07 08:27 42.43424 11.98359 25549 ft 479 kts 346°
2026-05-07 08:27 42.46727 11.97620 26126 ft 483 kts 346°
2026-05-07 08:27 42.50056 11.96873 26740 ft 486 kts 346°
2026-05-07 08:27 42.53381 11.96128 27551 ft 484 kts 345°
2026-05-07 08:28 42.56695 11.95383 28343 ft 482 kts 345°
2026-05-07 08:28 42.60001 11.94637 29136 ft 481 kts 345°
2026-05-07 08:28 42.63295 11.93890 29923 ft 480 kts 345°
2026-05-07 08:28 42.66584 11.93139 30609 ft 478 kts 345°
2026-05-07 08:29 42.69857 11.92390 31319 ft 476 kts 344°
2026-05-07 08:29 42.73111 11.91641 32021 ft 473 kts 344°
2026-05-07 08:29 42.76350 11.90890 32716 ft 471 kts 344°
2026-05-07 08:29 42.79532 11.90139 33351 ft 469 kts 342°
2026-05-07 08:30 42.82624 11.89020 33752 ft 453 kts 335°
2026-05-07 08:30 42.85637 11.87573 33921 ft 455 kts 332°
2026-05-07 08:30 42.91576 11.84419 34003 ft 459 kts 331°
2026-05-07 08:31 42.97432 11.81184 34015 ft 456 kts 330°
2026-05-07 08:31 43.03295 11.77893 34017 ft 456 kts 330°
2026-05-07 08:32 43.09162 11.74567 34016 ft 456 kts 330°
2026-05-07 08:32 43.15022 11.71228 34017 ft 455 kts 329°
2026-05-07 08:33 43.20862 11.67884 34017 ft 455 kts 329°
2026-05-07 08:33 43.26707 11.64527 34022 ft 455 kts 329°
2026-05-07 08:34 43.32547 11.61161 34026 ft 455 kts 329°
2026-05-07 08:34 43.38381 11.57786 34030 ft 455 kts 329°
2026-05-07 08:35 43.43236 11.54968 34034 ft 456 kts 329°
2026-05-07 08:35 43.49080 11.51568 34033 ft 455 kts 329°
2026-05-07 08:36 43.54919 11.48164 34036 ft 456 kts 329°
2026-05-07 08:36 43.60767 11.44748 34036 ft 457 kts 328°
2026-05-07 08:37 43.66612 11.41324 34034 ft 456 kts 328°
2026-05-07 08:37 43.72446 11.37899 34047 ft 456 kts 328°
2026-05-07 08:38 43.78257 11.34478 34052 ft 457 kts 329°
2026-05-07 08:38 43.84105 11.31031 34056 ft 456 kts 329°
2026-05-07 08:39 43.89934 11.27589 34049 ft 455 kts 329°
2026-05-07 08:39 43.95767 11.24136 34053 ft 456 kts 329°
2026-05-07 08:40 44.01605 11.20671 34043 ft 455 kts 329°
2026-05-07 08:40 44.07426 11.17210 34038 ft 456 kts 329°
2026-05-07 08:41 44.13255 11.13737 34023 ft 455 kts 329°
2026-05-07 08:41 44.19072 11.10265 34015 ft 455 kts 329°
2026-05-07 08:42 44.24761 11.06863 34019 ft 456 kts 329°
2026-05-07 08:42 44.30609 11.03359 34020 ft 454 kts 329°
2026-05-07 08:43 44.36377 10.99892 34013 ft 455 kts 329°
2026-05-07 08:43 44.42196 10.96387 34005 ft 455 kts 329°
2026-05-07 08:44 44.48005 10.92883 34001 ft 455 kts 329°
2026-05-07 08:44 44.53825 10.89364 34002 ft 456 kts 329°
2026-05-07 08:45 44.59638 10.85846 33999 ft 455 kts 329°
2026-05-07 08:45 44.65444 10.82325 34003 ft 455 kts 329°
2026-05-07 08:46 44.71256 10.78790 34001 ft 455 kts 329°
2026-05-07 08:46 44.77065 10.75249 33997 ft 454 kts 329°
2026-05-07 08:47 44.82869 10.71704 34001 ft 455 kts 329°
2026-05-07 08:47 44.88679 10.68145 33998 ft 455 kts 330°
2026-05-07 08:48 44.94487 10.64582 33997 ft 455 kts 329°
2026-05-07 08:48 45.00255 10.61036 33994 ft 455 kts 329°
2026-05-07 08:49 45.06102 10.57435 33994 ft 456 kts 329°
2026-05-07 08:49 45.11872 10.53871 33988 ft 455 kts 329°
2026-05-07 08:50 45.17674 10.50281 33991 ft 455 kts 330°
2026-05-07 08:50 45.23484 10.46675 33997 ft 456 kts 330°
2026-05-07 08:51 45.29300 10.43057 34004 ft 456 kts 329°
2026-05-07 08:51 45.35111 10.39435 34006 ft 456 kts 329°
2026-05-07 08:52 45.40928 10.35801 33998 ft 457 kts 330°
2026-05-07 08:52 45.46751 10.32153 33998 ft 458 kts 330°
2026-05-07 08:53 45.52581 10.28493 33971 ft 458 kts 330°
2026-05-07 08:53 45.58423 10.24818 33976 ft 459 kts 330°
2026-05-07 08:54 45.63290 10.21750 33985 ft 459 kts 330°
2026-05-07 08:54 45.66870 10.19490 33993 ft 459 kts 330°
2026-05-07 08:55 45.72703 10.15802 33974 ft 458 kts 330°
2026-05-07 08:55 45.78547 10.12094 34004 ft 461 kts 330°
2026-05-07 08:56 45.84408 10.08372 34000 ft 459 kts 330°
2026-05-07 08:56 45.87334 10.06510 34009 ft 460 kts 330°